This is the latest recevied weather packets stored in our database for station/object KA1STV. If no packets are shown the sender has not sent any weather packets the latest 1 day(s).
| Time | Temp. | Humidity | Pressure | Rain* | Wind** | Luminosity | Snow |
|---|---|---|---|---|---|---|---|
| 1778025372 | 21.11° C | 60% | 1006.9 hPa | 0 mm | 1.34 m/s, 318° | 0 W/m² | - |
| 1778025068 | 21.11° C | 60% | 1006.7 hPa | 0 mm | 0.45 m/s, 156° | 0 W/m² | - |
| 1778024766 | 21.11° C | 60% | 1006.6 hPa | 0 mm | 1.34 m/s, 168° | 0 W/m² | - |
| 1778024462 | 21.11° C | 59% | 1006.7 hPa | 0 mm | 0.89 m/s, 158° | 0 W/m² | - |
| 1778024160 | 21.67° C | 59% | 1006.5 hPa | 0 mm | 0.45 m/s, 128° | 0 W/m² | - |
| 1778023857 | 21.67° C | 58% | 1006.5 hPa | 0 mm | 1.34 m/s, 225° | 1 W/m² | - |
| 1778023555 | 21.67° C | 58% | 1006.4 hPa | 0 mm | 0 m/s | 3 W/m² | - |
| 1778023252 | 21.67° C | 58% | 1006.3 hPa | 0 mm | 2.24 m/s, 233° | 6 W/m² | - |
| 1778022948 | 22.22° C | 58% | 1006.1 hPa | 0 mm | 0.89 m/s, 242° | 7 W/m² | - |
| 1778022648 | 22.22° C | 56% | 1006.1 hPa | 0 mm | 1.34 m/s, 179° | 11 W/m² | - |
| 1778022345 | 22.22° C | 56% | 1005.9 hPa | 0 mm | 1.79 m/s, 218° | 17 W/m² | - |
| 1778022041 | 22.22° C | 56% | 1006.1 hPa | 0 mm | 1.34 m/s, 211° | 16 W/m² | - |
| 1778021738 | 22.78° C | 55% | 1006 hPa | 0 mm | 0.89 m/s, 163° | 23 W/m² | - |
| 1778021434 | 22.78° C | 55% | 1005.8 hPa | 0 mm | 0.45 m/s, 138° | 32 W/m² | - |
| 1778021131 | 22.78° C | 55% | 1005.7 hPa | 0 mm | 1.79 m/s, 171° | 38 W/m² | - |
| 1778020828 | 22.78° C | 54% | 1006 hPa | 0 mm | 1.34 m/s, 192° | 43 W/m² | - |
| 1778020525 | 23.33° C | 54% | 1005.8 hPa | 0 mm | 0.89 m/s, 209° | 46 W/m² | - |
| 1778020221 | 23.33° C | 53% | 1005.5 hPa | 0 mm | 0.45 m/s, 91° | 44 W/m² | - |
| 1778019918 | 23.33° C | 53% | 1005.9 hPa | 0 mm | 0.45 m/s, 117° | 41 W/m² | - |
| 1778019614 | 23.89° C | 52% | 1005.4 hPa | 0 mm | 0.45 m/s, 79° | 46 W/m² | - |
| 1778019311 | 23.89° C | 51% | 1005.5 hPa | 0 mm | 0.89 m/s, 148° | 51 W/m² | - |
| 1778019008 | 23.89° C | 51% | 1005.4 hPa | 0 mm | 2.68 m/s, 125° | 62 W/m² | - |
| 1778018705 | 24.44° C | 50% | 1005.3 hPa | 0 mm | 1.79 m/s, 305° | 60 W/m² | - |
| 1778018403 | 24.44° C | 50% | 1005.4 hPa | 0 mm | 1.34 m/s, 270° | 67 W/m² | - |
| 1778018101 | 25° C | 49% | 1005.4 hPa | 0 mm | 0.89 m/s, 9° | 70 W/m² | - |
* Rain latest hour (hover to see other rain measurements)
** Current wind speed in m/s (hover to see current wind gust speed)